User: anonymous   Login
Location: Oshawa
(43.9000°N, 78.8670°W)
Time: 07:54:38
(UTC-04:00)
Language:

Cosmos 1408 Rocket - Orbit

View from above orbital plane
View from above orbital plane
View from above satellite
View from above satellite

Ground track
Ground track

The orbit data is extracted from the following two-line orbital elements,

1 13553U 82092B   17085.69307611 +.00000124 +00000-0 +11898-4 0  9990
2 13553 082.5680 310.9445 0020423 320.8101 098.8409 14.84111443864805
Epoch (UTC): 26 March 2017 16:38:01
Eccentricity: 0.0020423
inclination: 82.5680°
perigee height: 602 km
apogee height: 630 km
right ascension of ascending node: 310.9445°
argument of perigee: 320.8101°
revolutions per day: 14.84111443
mean anomaly at epoch: 98.8409°
orbit number at epoch: 86480

The dashed part of the orbit path shows where the satellite is in the earth's shadow,  

DLR